EW8978 Weather Reports


time (UTC)temp
F
wind
direction
speed
knots
gust
knots
rain 1hr
in
rain 24hr
in
rain mn
in
humidity
%
barometer
mb
20260510070043 0 0.0 0.0 0.00 0.00 0.00 1009.7
20260510064526 0 0.0 0.0 0.00 0.00 0.00 1009.7
20260510063052 0 0.0 0.0 0.00 0.00 0.00 1009.7
20260510061548 0 0.0 0.0 0.00 0.00 0.00 1009.6
20260510060032 0 0.0 0.0 0.00 0.00 0.00 1009.6
20260510054516 0 0.0 0.0 0.00 0.00 0.00 1009.6
20260510053036 0 0.0 0.0 0.00 0.00 0.00 1009.5
20260510051530 0 0.0 0.0 0.00 0.00 0.00 1009.7
20260510050108 0 0.0 0.0 0.00 0.00 0.00 1009.6
20260510044552 0 0.0 0.0 0.00 0.00 0.00 1009.7
20260510043047 0 0.0 0.0 0.00 0.00 0.00 1009.9
20260510041540 0 0.0 0.0 0.00 0.00 0.00 1009.9
20260510040036 0 0.0 0.0 0.00 0.00 0.00 1009.4
20260510034532 0 0.0 0.0 0.00 0.00 0.00 1009.7
20260510033105 0 0.0 0.0 0.00 0.00 0.00 1009.7
20260510031557 0 0.0 0.0 0.00 0.00 0.00 1009.8
20260510030046 0 0.0 0.0 0.00 0.00 0.00 1009.8
20260510024541 0 0.0 0.0 0.00 0.00 0.00 1010.3
20260510023037 0 0.0 0.0 0.00 0.00 0.00 1010.6
20260510021611 0 0.0 0.0 0.00 0.00 0.00 1011.1
20260510020026 0 0.0 0.0 0.00 0.00 0.00 1010.8
20260510014532 0 0.0 0.0 0.00 0.00 0.00 1011.2
20260510013017 0 0.0 0.0 0.00 0.00 0.00 1011.5
20260510011516 0 0.0 0.0 0.00 0.00 0.00 1012.0
20260510010020 0 0.0 0.0 0.00 0.00 0.00 1012.0
20260510004501 0 0.0 0.0 0.00 0.00 0.00 1012.2
20260510003105 0 0.0 0.0 0.00 0.00 0.00 1012.4
20260510001553 0 0.0 0.0 0.00 0.00 0.00 1012.5
20260510000049 0 0.0 0.0 0.00 0.00 0.00 1012.2
20260509234540 0 0.0 0.0 0.00 0.00 0.00 1011.8
20260509233036 0 0.0 0.0 0.00 0.00 0.00 1011.7
20260509231531 0 0.0 0.0 0.00 0.00 0.00 1011.2
20260509230035 0 0.0 0.0 0.00 0.00 0.00 1011.2
20260509224522 57 215 20.0 26.9 0.00 0.00 0.00 1011.2
20260509223017 57 211 20.9 29.5 0.00 0.00 0.00 83 1011.0
20260509221516 57 212 19.1 26.1 0.00 0.00 0.00 82 1011.0
20260509220016 57 210 20.0 24.3 0.00 0.00 0.00 83 1010.8
20260509214512 57 197 21.7 26.1 0.00 0.00 0.00 83 1010.7
20260509213013 57 189 20.0 24.3 0.00 0.00 0.00 83 1010.7
20260509211509 57 209 18.2 24.3 0.00 0.00 0.00 83 1010.7
20260509210008 57 182 20.9 26.1 0.00 0.00 0.00 83 1010.7
20260509204505 57 208 20.9 26.9 0.00 0.00 0.00 83 1010.8
20260509203005 57 205 20.9 26.1 0.00 0.00 0.00 83 1010.7
20260509201510 57 203 19.1 26.1 0.00 0.00 0.00 83 1011.0
20260509200002 57 194 19.1 26.1 0.00 0.00 0.00 82 1011.2
20260509194547 58 211 20.0 25.2 0.00 0.00 0.00 82 1011.1
20260509193034 58 207 20.9 25.2 0.00 0.00 0.00 81 1011.1
20260509191530 58 218 20.0 25.2 0.00 0.00 0.00 81 1011.1
20260509190027 57 221 20.0 24.3 0.00 0.00 0.00 82 1011.0
20260509184527 57 199 19.1 22.6 0.00 0.00 0.00 84 1011.1
20260509183023 57 215 16.5 20.9 0.00 0.00 0.00 84 1011.3
20260509181517 57 205 14.8 20.0 0.00 0.00 0.00 84 1011.7
20260509180017 57 199 12.2 15.6 0.00 0.00 0.00 85 1011.9
20260509174515 56 218 13.9 17.4 0.00 0.00 0.00 85 1012.0
20260509173022 56 227 14.8 19.1 0.00 0.00 0.00 85 1012.2
20260509171512 56 192 12.2 16.5 0.00 0.00 0.00 86 1012.1
20260509170015 56 209 15.6 20.0 0.00 0.00 0.00 85 1012.1
20260509164512 55 201 14.8 17.4 0.00 0.00 0.00 87 1012.0
20260509163011 56 194 18.2 21.7 0.00 0.00 0.00 81 1012.1
20260509161551 56 190 16.5 20.0 0.00 0.00 0.00 82 1012.2
20260509160036 55 193 11.3 16.5 0.00 0.00 0.00 86 1012.2
20260509154502 55 194 12.2 16.5 0.00 0.00 0.00 85 1012.3
20260509153105 55 200 13.9 19.1 0.00 0.00 0.00 85 1012.4
20260509153000 55 192 14.8 19.1 0.00 0.00 0.00 85 1012.5
20260509151555 54 165 13.0 16.5 0.00 0.00 0.00 89 1012.7
20260509150054 53 159 9.6 13.9 0.00 0.00 0.00 90 1012.7
20260509144554 53 167 13.0 16.5 0.00 0.00 0.00 89 1012.7
20260509143054 53 161 13.0 17.4 0.00 0.00 0.00 88 1012.6
20260509141529 53 146 8.7 10.4 0.00 0.00 0.00 88 1012.5
20260509140017 53 148 6.1 9.6 0.00 0.00 0.00 87 1012.7
20260509134549 53 164 8.7 11.3 0.00 0.00 0.00 85 1012.9
20260509133045 53 182 7.0 10.4 0.00 0.00 0.00 87 1013.1
20260509131541 52 164 7.0 8.7 0.00 0.00 0.00 87 1013.2
20260509130040 52 164 9.6 12.2 0.00 0.00 0.00 87 1013.1
20260509124544 52 163 10.4 13.9 0.00 0.00 0.00 87 1013.1
20260509123038 52 153 8.7 12.2 0.00 0.00 0.00 86 1013.0
20260509121538 52 154 5.2 7.0 0.00 0.00 0.00 86 1013.0
20260509120006 52 139 6.1 7.8 0.00 0.00 0.00 87 1013.0
20260509114501 0 0.0 0.0 0.00 0.00 0.00 1013.1
20260509113055 0 0.0 0.0 0.00 0.00 0.00 1013.1
20260509111553 0 0.0 0.0 0.00 0.00 0.00 1013.2
20260509110046 0 0.0 0.0 0.00 0.00 0.00 1013.5
20260509104542 0 0.0 0.0 0.00 0.00 0.00 1013.6
20260509103017 0 0.0 0.0 0.00 0.00 0.00 1013.0
20260509101505 0 0.0 0.0 0.00 0.00 0.00 1012.9
20260509100059 0 0.0 0.0 0.00 0.00 0.00 1012.7
20260509094558 0 0.0 0.0 0.00 0.00 0.00 1012.5
20260509093048 0 0.0 0.0 0.00 0.00 0.00 1012.5
20260509091550 0 0.0 0.0 0.00 0.00 0.00 1012.2
20260509090048 0 0.0 0.0 0.00 0.00 0.00 1012.1
20260509084534 0 0.0 0.0 0.00 0.00 0.00 1011.7
20260509083028 0 0.0 0.0 0.00 0.00 0.00 1011.9
20260509081524 0 0.0 0.0 0.00 0.00 0.00 1011.9
20260509080017 0 0.0 0.0 0.00 0.00 0.00 1011.9
20260509074513 0 0.0 0.0 0.00 0.00 0.00 1012.1
20260509073019 0 0.0 0.0 0.00 0.00 0.00 1012.2
20260509071504 0 0.0 0.0 0.00 0.00 0.00 1012.3